CDT,Max TemperatureF,Mean TemperatureF,Min TemperatureF,Max Dew PointF,MeanDew PointF,Min DewpointF,Max Humidity, Mean Humidity, Min Humidity, Max Sea Level PressureIn, Mean Sea Level PressureIn, Min Sea Level PressureIn, Max VisibilityMiles, Mean VisibilityMiles, Min VisibilityMiles, Max Wind SpeedMPH, Mean Wind SpeedMPH, Max Gust SpeedMPH,PrecipitationIn, CloudCover, Events, WindDirDegrees
2013-8-1,72,59,46,57,52,46,98,76,46,29.98,29.96,29.90,10,10,7,14,4,18,0.00,2,,293
2013-8-2,73,62,50,58,53,49,99,75,45,30.01,29.90,29.85,10,10,1,14,5,21,0.12,2,Rain,322
2013-8-3,70,57,44,54,49,44,100,74,47,30.20,30.10,30.02,10,10,0,12,3,20,0.00,2,Fog,328
2013-8-4,68,54,41,53,47,41,99,74,45,30.27,30.20,30.12,10,10,1,6,1,,0.00,2,,57
2013-8-5,68,60,51,61,57,51,100,92,74,30.11,29.97,29.87,10,9,2,12,6,,0.01,7,Rain,185
2013-8-6,76,66,56,62,59,53,100,80,46,29.88,29.83,29.75,10,8,0,16,6,46,0.49,5,Fog-Rain,230
2013-8-7,71,60,48,60,55,48,100,82,51,30.05,29.89,29.76,10,9,0,14,7,17,0.08,5,Fog-Rain,313
2013-8-8,72,57,42,54,49,42,99,72,40,30.08,30.05,30.01,10,10,10,9,2,,0.00,1,,262
2013-8-9,70,60,51,56,51,47,97,72,45,30.10,30.02,29.97,10,10,10,18,4,24,0.00,5,,309
2013-8-10,68,59,50,54,53,49,96,77,55,30.18,30.15,30.10,10,10,10,8,3,,0.00,6,,304
2013-8-11,71,60,48,58,53,47,99,79,52,30.15,30.10,30.04,10,10,2,8,1,,0.00,2,,208
2013-8-12,74,62,46,62,54,45,100,78,42,30.08,30.00,29.95,10,7,0,17,4,28,0.00,5,Fog,336
2013-8-13,63,50,37,49,44,38,100,77,51,30.20,30.14,30.07,10,10,1,16,5,21,0.00,3,,359
2013-8-14,69,52,35,47,43,35,99,74,43,30.24,30.19,30.13,10,10,2,9,2,,0.00,2,,306
2013-8-15,75,58,41,54,48,41,99,71,38,30.15,30.13,30.09,10,10,10,12,2,18,0.00,3,,299
2013-8-16,77,60,44,57,51,43,99,72,40,30.21,30.19,30.15,10,10,1,8,1,,0.00,1,,271
2013-8-17,79,62,46,58,52,46,99,71,38,30.27,30.22,30.18,10,9,5,12,2,,0.00,1,,214
2013-8-18,79,64,48,58,54,47,97,71,43,30.23,30.17,30.10,10,10,10,12,5,16,0.00,1,,223
2013-8-19,78,65,52,63,58,51,99,76,51,30.10,30.05,30.00,10,10,7,18,6,25,0.03,1,,232
2013-8-20,84,72,59,66,63,59,97,74,51,30.06,30.02,29.98,10,9,5,18,8,22,0.00,3,,214
2013-8-21,87,74,60,70,66,60,99,79,56,30.04,29.97,29.88,10,9,2,17,8,22,0.47,2,Rain,226
2013-8-22,77,66,55,60,56,50,100,77,40,30.18,30.11,30.04,10,8,0,12,2,,0.03,3,Fog,31
2013-8-23,76,64,51,59,53,46,88,68,49,30.25,30.20,30.16,10,10,10,13,7,,0.00,2,,134
2013-8-24,79,66,53,65,57,52,98,70,41,30.27,30.21,30.13,10,10,10,16,8,22,0.00,1,,173
2013-8-25,90,78,67,72,69,64,91,73,52,30.14,30.09,30.04,10,10,10,20,12,26,0.00,0,Rain,222
2013-8-26,83,74,65,75,70,63,99,86,68,30.13,30.03,29.96,10,10,3,16,9,18,0.58,4,Rain,234
2013-8-27,83,74,65,75,71,65,100,94,74,30.01,29.91,29.85,10,6,0,16,7,21,0.18,6,Fog-Rain,110
2013-8-28,81,73,65,68,66,62,100,85,54,30.10,30.04,29.94,10,7,0,7,2,,0.00,4,Fog,73
2013-8-29,82,72,61,70,66,61,100,84,57,30.13,30.06,29.95,10,8,0,20,4,32,0.87,3,Rain,163
2013-8-30,77,67,57,71,64,57,99,86,62,29.97,29.91,29.86,10,9,2,16,9,21,0.02,5,Rain,9
2013-8-31,77,64,52,64,60,53,100,85,61,29.95,29.90,29.82,10,9,2,7,3,,0.00,0,,179